Precipitable_Water
0.34 0.19 0.17 0.15 0.19 0.23 0.30 0.44 0.47 0.51 0.60 0.61 0.63 0.66 0.71 0.74 0.88 1.04 1.04 1.22 1.31 1.12 1.05 1.10 1.20 1.22 1.32 1.41 1.51 1.61 1.64 1.55 1.47 1.55 1.50 1.44 1.24 1.11 0.98 1.03 0.98 0.97 0.93 1.01 1.10 1.00 1.05 1.03 1.06 1.10 1.12 1.16 1.17 1.21 1.20 1.20 1.25 1.26 1.31 1.35 1.30 1.38 1.44 1.40 1.34 1.42 1.44 1.42 1.54 1.62 1.61 1.69 1.76 1.80 1.85 1.90 1.91 1.84 1.82 1.81 1.83 1.83 1.84 1.80 1.79 1.78
0.31 0.20 0.17 0.19 0.19 0.25 0.29 0.36 0.46 0.51 0.53 0.61 0.64 0.62 0.67 0.73 0.75 0.92 0.99 1.17 1.23 1.09 1.05 1.17 1.19 1.25 1.29 1.39 1.54 1.61 1.56 1.44 1.47 1.46 1.50 1.52 1.36 1.19 1.07 1.07 0.99 0.95 1.02 1.00 1.06 0.96 1.07 1.02 1.08 1.08 1.10 1.16 1.10 1.18 1.19 1.15 1.21 1.22 1.31 1.28 1.31 1.37 1.37 1.36 1.34 1.38 1.42 1.44 1.56 1.57 1.62 1.70 1.73 1.69 1.76 1.78 1.88 1.75 1.76 1.82 1.83 1.80 1.80 1.82 1.82 1.85
0.24 0.21 0.19 0.23 0.24 0.24 0.30 0.33 0.42 0.49 0.53 0.63 0.65 0.63 0.66 0.72 0.77 0.94 1.02 1.09 1.13 1.10 1.06 1.13 1.12 1.22 1.27 1.42 1.53 1.57 1.56 1.57 1.62 1.57 1.54 1.51 1.45 1.30 1.18 1.13 1.05 0.97 0.99 0.97 1.06 0.99 1.07 1.02 1.10 1.07 1.09 1.16 1.17 1.19 1.17 1.16 1.21 1.23 1.29 1.29 1.34 1.34 1.34 1.36 1.34 1.34 1.40 1.44 1.56 1.67 1.71 1.75 1.75 1.84 1.88 1.88 1.86 1.79 1.73 1.77 1.83 1.77 1.77 1.77 1.81 1.82
0.20 0.23 0.23 0.27 0.31 0.24 0.25 0.28 0.37 0.48 0.55 0.54 0.61 0.62 0.60 0.72 0.68 0.69 0.90 1.04 1.08 1.07 0.98 1.09 1.07 1.16 1.28 1.36 1.45 1.51 1.57 1.57 1.66 1.66 1.68 1.71 1.57 1.47 1.27 1.15 1.08 0.98 1.00 0.97 1.03 0.99 1.07 1.02 1.13 1.05 1.08 1.13 1.19 1.20 1.17 1.17 1.21 1.21 1.28 1.32 1.32 1.36 1.35 1.35 1.35 1.31 1.43 1.44 1.56 1.70 1.74 1.79 1.74 1.71 1.80 1.80 1.83 1.78 1.83 1.76 1.75 1.75 1.79 1.79 1.77 1.87
0.22 0.26 0.27 0.28 0.32 0.27 0.27 0.33 0.34 0.39 0.43 0.58 0.62 0.65 0.66 0.66 0.72 0.69 0.88 0.96 1.03 1.06 1.09 1.06 1.00 1.01 1.07 1.05 1.19 1.37 1.51 1.59 1.64 1.66 1.68 1.64 1.63 1.55 1.54 1.28 1.15 1.05 1.02 0.97 1.02 0.93 1.09 1.01 1.09 1.05 1.08 1.12 1.15 1.18 1.16 1.20 1.17 1.18 1.24 1.31 1.32 1.36 1.35 1.34 1.34 1.37 1.41 1.41 1.47 1.59 1.70 1.76 1.70 1.73 1.75 1.72 1.74 1.73 1.76 1.71 1.82 1.73 1.83 1.80 1.80 1.87
0.25 0.29 0.30 0.27 0.30 0.30 0.36 0.42 0.41 0.46 0.45 0.52 0.64 0.69 0.72 0.71 0.66 0.73 0.89 0.87 0.86 0.87 0.95 0.96 0.77 0.82 0.96 1.01 1.09 1.24 1.33 1.44 1.62 1.57 1.57 1.64 1.51 1.67 1.52 1.43 1.23 1.18 1.12 1.02 1.02 0.95 1.08 1.04 1.10 1.08 1.11 1.11 1.14 1.15 1.18 1.25 1.19 1.21 1.22 1.30 1.33 1.34 1.37 1.35 1.32 1.36 1.38 1.36 1.34 1.43 1.51 1.55 1.44 1.48 1.54 1.50 1.52 1.59 1.67 1.68 1.69 1.72 1.83 1.80 1.82 1.85
0.28 0.31 0.29 0.26 0.32 0.33 0.43 0.55 0.56 0.54 0.49 0.46 0.53 0.71 0.74 0.75 0.71 0.72 0.72 0.75 0.68 0.66 0.90 0.98 0.72 0.74 1.00 0.95 1.04 1.20 1.34 1.45 1.50 1.46 1.50 1.55 1.60 1.67 1.48 1.50 1.34 1.19 1.17 1.14 1.11 1.03 1.07 1.08 1.09 1.05 1.07 1.09 1.13 1.16 1.20 1.28 1.22 1.27 1.24 1.28 1.34 1.25 1.34 1.40 1.30 1.34 1.33 1.32 1.33 1.38 1.41 1.48 1.40 1.35 1.46 1.66 1.70 1.66 1.77 1.74 1.67 1.70 1.83 1.83 1.77 1.83
0.28 0.30 0.28 0.27 0.34 0.44 0.46 0.49 0.59 0.54 0.46 0.42 0.53 0.63 0.68 0.72 0.72 0.68 0.64 0.63 0.67 0.74 0.93 0.93 0.82 0.72 0.82 0.99 1.20 1.31 1.26 1.39 1.38 1.48 1.46 1.56 1.61 1.59 1.54 1.59 1.48 1.24 1.24 1.17 1.13 1.11 1.10 1.09 1.09 1.04 1.05 1.08 1.14 1.17 1.16 1.25 1.24 1.27 1.25 1.25 1.31 1.27 1.31 1.39 1.31 1.34 1.30 1.25 1.28 1.32 1.33 1.42 1.38 1.36 1.42 1.59 1.69 1.72 1.84 1.76 1.67 1.67 1.68 1.83 1.81 1.79
0.25 0.29 0.29 0.29 0.39 0.48 0.43 0.47 0.54 0.56 0.43 0.42 0.54 0.60 0.61 0.70 0.72 0.69 0.65 0.60 0.62 0.68 0.65 0.73 0.80 0.77 0.82 1.01 1.18 1.19 1.09 1.21 1.30 1.38 1.44 1.47 1.47 1.55 1.60 1.60 1.54 1.38 1.33 1.25 1.14 1.14 1.10 1.11 1.14 1.12 1.07 1.11 1.17 1.15 1.10 1.20 1.23 1.31 1.29 1.23 1.31 1.26 1.30 1.37 1.31 1.35 1.29 1.28 1.26 1.25 1.27 1.30 1.34 1.40 1.46 1.62 1.68 1.69 1.82 1.69 1.66 1.64 1.63 1.77 1.73 1.69
0.25 0.32 0.36 0.43 0.46 0.44 0.51 0.47 0.47 0.48 0.43 0.45 0.53 0.57 0.61 0.64 0.70 0.70 0.64 0.60 0.61 0.59 0.57 0.64 0.72 0.67 0.76 1.01 1.07 1.13 1.14 1.15 1.22 1.34 1.43 1.48 1.49 1.50 1.57 1.59 1.63 1.59 1.49 1.43 1.28 1.19 1.19 1.21 1.22 1.20 1.12 1.13 1.18 1.19 1.18 1.23 1.27 1.32 1.30 1.23 1.26 1.24 1.30 1.36 1.33 1.33 1.29 1.28 1.25 1.16 1.23 1.22 1.29 1.40 1.43 1.52 1.62 1.62 1.75 1.69 1.61 1.69 1.54 1.65 1.69 1.61
0.32 0.40 0.55 0.46 0.47 0.53 0.49 0.48 0.44 0.46 0.47 0.51 0.49 0.54 0.57 0.59 0.61 0.67 0.66 0.63 0.58 0.48 0.54 0.62 0.72 0.68 0.64 0.86 0.96 0.98 1.03 1.12 1.21 1.29 1.42 1.50 1.50 1.49 1.49 1.55 1.65 1.61 1.56 1.41 1.41 1.30 1.25 1.29 1.31 1.28 1.14 1.14 1.20 1.22 1.21 1.25 1.28 1.33 1.28 1.24 1.24 1.25 1.28 1.35 1.33 1.31 1.25 1.25 1.24 1.16 1.23 1.23 1.24 1.36 1.37 1.41 1.46 1.52 1.60 1.65 1.58 1.64 1.55 1.58 1.62 1.61
0.39 0.37 0.50 0.53 0.58 0.56 0.53 0.41 0.42 0.50 0.52 0.50 0.47 0.47 0.50 0.53 0.56 0.55 0.57 0.60 0.47 0.43 0.53 0.61 0.76 0.69 0.58 0.80 0.97 1.10 1.22 1.24 1.23 1.25 1.36 1.38 1.46 1.49 1.56 1.59 1.67 1.69 1.67 1.66 1.52 1.53 1.31 1.32 1.33 1.37 1.23 1.17 1.22 1.23 1.21 1.23 1.31 1.36 1.32 1.24 1.24 1.24 1.27 1.29 1.32 1.33 1.25 1.25 1.25 1.21 1.27 1.26 1.24 1.35 1.35 1.36 1.35 1.46 1.44 1.54 1.53 1.60 1.60 1.64 1.63 1.64
0.39 0.45 0.50 0.54 0.58 0.51 0.46 0.46 0.45 0.50 0.50 0.47 0.46 0.43 0.38 0.42 0.42 0.37 0.45 0.41 0.42 0.42 0.52 0.58 0.66 0.64 0.73 0.85 1.03 1.13 1.18 1.25 1.32 1.34 1.38 1.42 1.43 1.50 1.59 1.60 1.61 1.65 1.65 1.68 1.72 1.58 1.46 1.33 1.31 1.32 1.31 1.17 1.21 1.23 1.23 1.25 1.30 1.34 1.36 1.29 1.20 1.21 1.26 1.26 1.29 1.27 1.24 1.25 1.22 1.24 1.27 1.31 1.32 1.33 1.37 1.40 1.40 1.45 1.38 1.51 1.57 1.54 1.53 1.74 1.59 1.65
0.39 0.47 0.50 0.47 0.49 0.51 0.51 0.36 0.40 0.40 0.44 0.43 0.40 0.38 0.34 0.33 0.34 0.31 0.36 0.43 0.43 0.46 0.55 0.55 0.73 0.68 0.84 0.94 1.10 1.08 1.17 1.25 1.34 1.37 1.46 1.48 1.52 1.48 1.56 1.60 1.63 1.62 1.65 1.71 1.66 1.59 1.56 1.52 1.38 1.37 1.38 1.25 1.19 1.24 1.27 1.27 1.29 1.33 1.34 1.37 1.27 1.24 1.27 1.29 1.28 1.23 1.23 1.19 1.22 1.24 1.26 1.29 1.36 1.29 1.35 1.39 1.43 1.41 1.46 1.48 1.54 1.56 1.51 1.55 1.57 1.64
0.29 0.31 0.39 0.43 0.36 0.50 0.45 0.42 0.41 0.38 0.40 0.38 0.42 0.36 0.38 0.37 0.33 0.30 0.32 0.31 0.35 0.43 0.50 0.66 0.57 0.62 0.64 0.79 1.13 1.15 1.19 1.29 1.35 1.45 1.46 1.52 1.59 1.66 1.64 1.67 1.67 1.61 1.64 1.66 1.63 1.64 1.72 1.66 1.51 1.43 1.39 1.32 1.23 1.24 1.28 1.28 1.31 1.34 1.34 1.36 1.30 1.29 1.26 1.27 1.26 1.24 1.21 1.17 1.19 1.23 1.25 1.27 1.32 1.31 1.34 1.38 1.42 1.45 1.43 1.48 1.52 1.59 1.61 1.48 1.64 1.66
0.30 0.29 0.36 0.41 0.41 0.45 0.43 0.47 0.48 0.38 0.33 0.37 0.40 0.44 0.38 0.35 0.38 0.30 0.34 0.33 0.36 0.39 0.43 0.51 0.64 0.78 0.79 1.03 1.11 1.17 1.19 1.23 1.31 1.36 1.43 1.44 1.52 1.58 1.60 1.62 1.62 1.64 1.64 1.71 1.69 1.79 1.85 1.75 1.64 1.56 1.47 1.42 1.36 1.29 1.31 1.32 1.35 1.35 1.36 1.36 1.35 1.29 1.25 1.24 1.27 1.26 1.22 1.18 1.19 1.20 1.20 1.23 1.25 1.30 1.33 1.36 1.37 1.41 1.43 1.47 1.54 1.59 1.63 1.59 1.63 1.70
0.32 0.27 0.35 0.39 0.35 0.32 0.40 0.49 0.43 0.35 0.24 0.31 0.33 0.31 0.32 0.39 0.35 0.31 0.32 0.35 0.35 0.36 0.44 0.60 0.65 0.79 0.97 1.02 1.08 1.10 1.13 1.14 1.25 1.30 1.35 1.41 1.47 1.52 1.53 1.58 1.65 1.68 1.67 1.66 1.72 1.70 1.79 1.79 1.78 1.63 1.62 1.54 1.48 1.42 1.34 1.36 1.37 1.38 1.41 1.40 1.38 1.38 1.31 1.25 1.22 1.24 1.24 1.25 1.19 1.17 1.19 1.21 1.22 1.23 1.25 1.26 1.28 1.33 1.38 1.43 1.49 1.56 1.63 1.68 1.68 1.65
0.28 0.28 0.32 0.30 0.27 0.32 0.39 0.43 0.37 0.34 0.36 0.31 0.24 0.24 0.27 0.32 0.33 0.30 0.30 0.33 0.27 0.24 0.47 0.55 0.51 0.63 0.69 0.66 1.03 1.04 1.02 1.06 1.14 1.22 1.31 1.37 1.45 1.45 1.49 1.56 1.61 1.66 1.71 1.74 1.77 1.77 1.83 1.80 1.74 1.71 1.70 1.66 1.59 1.58 1.50 1.46 1.47 1.47 1.48 1.50 1.44 1.40 1.34 1.33 1.28 1.21 1.20 1.22 1.20 1.19 1.17 1.18 1.19 1.20 1.21 1.25 1.25 1.32 1.35 1.39 1.42 1.49 1.53 1.63 1.65 1.60
0.34 0.27 0.30 0.31 0.29 0.30 0.31 0.31 0.29 0.32 0.36 0.33 0.31 0.37 0.21 0.23 0.20 0.30 0.31 0.26 0.25 0.23 0.45 0.57 0.60 0.62 0.68 0.71 0.92 0.94 0.98 0.99 1.09 1.18 1.20 1.26 1.34 1.41 1.48 1.54 1.59 1.65 1.71 1.78 1.84 1.87 1.87 1.82 1.80 1.77 1.73 1.75 1.73 1.72 1.77 1.75 1.59 1.56 1.55 1.62 1.65 1.48 1.40 1.42 1.40 1.33 1.25 1.20 1.21 1.24 1.21 1.17 1.17 1.20 1.21 1.25 1.27 1.28 1.30 1.33 1.36 1.38 1.45 1.53 1.61 1.60
0.34 0.28 0.28 0.33 0.29 0.30 0.29 0.25 0.19 0.24 0.32 0.34 0.34 0.29 0.29 0.31 0.26 0.25 0.29 0.34 0.34 0.23 0.38 0.52 0.61 0.57 0.81 0.87 0.90 0.95 1.01 1.01 1.07 1.10 1.14 1.21 1.23 1.33 1.44 1.49 1.53 1.62 1.66 1.68 1.77 1.82 1.83 1.83 1.81 1.82 1.82 1.85 1.91 1.85 1.93 1.92 1.93 1.70 1.61 1.64 1.68 1.69 1.64 1.58 1.48 1.42 1.32 1.24 1.19 1.21 1.26 1.24 1.20 1.20 1.21 1.24 1.27 1.23 1.24 1.30 1.35 1.34 1.34 1.42 1.54 1.56
0.32 0.34 0.25 0.29 0.31 0.30 0.23 0.22 0.19 0.21 0.24 0.27 0.27 0.29 0.29 0.30 0.38 0.32 0.32 0.33 0.32 0.31 0.33 0.41 0.47 0.64 0.84 1.02 1.02 0.99 1.05 1.09 1.09 1.09 1.12 1.16 1.20 1.25 1.37 1.45 1.51 1.57 1.66 1.70 1.72 1.77 1.81 1.84 1.86 1.92 1.95 1.94 1.93 1.90 1.90 1.91 1.98 1.99 1.87 1.81 1.77 1.74 1.71 1.72 1.72 1.64 1.44 1.34 1.19 1.17 1.18 1.19 1.19 1.18 1.22 1.23 1.25 1.25 1.26 1.28 1.34 1.32 1.31 1.34 1.36 1.47
0.33 0.31 0.29 0.28 0.25 0.23 0.23 0.23 0.27 0.28 0.29 0.27 0.27 0.29 0.29 0.28 0.27 0.24 0.24 0.32 0.34 0.33 0.46 0.42 0.47 0.67 0.89 1.11 1.07 1.02 1.06 1.08 1.07 1.09 1.08 1.14 1.17 1.23 1.27 1.34 1.41 1.47 1.58 1.62 1.68 1.71 1.75 1.82 1.86 1.90 1.93 1.94 1.91 1.89 1.88 1.87 1.82 1.83 1.90 2.01 1.92 1.81 1.77 1.76 1.81 1.68 1.60 1.41 1.26 1.18 1.19 1.18 1.18 1.17 1.19 1.19 1.20 1.21 1.27 1.27 1.29 1.33 1.29 1.29 1.32 1.34
0.38 0.36 0.35 0.27 0.26 0.23 0.26 0.27 0.31 0.32 0.28 0.31 0.30 0.28 0.30 0.29 0.28 0.29 0.23 0.27 0.33 0.40 0.51 0.59 0.49 0.64 0.99 1.09 1.10 1.08 1.05 1.09 1.11 1.08 1.09 1.13 1.14 1.18 1.25 1.29 1.34 1.38 1.43 1.48 1.53 1.58 1.64 1.74 1.81 1.87 1.89 1.91 1.96 1.99 2.03 1.99 1.85 1.84 1.86 1.95 1.96 1.86 1.88 1.92 1.91 1.80 1.78 1.63 1.39 1.28 1.29 1.29 1.23 1.16 1.14 1.13 1.16 1.14 1.21 1.25 1.25 1.29 1.25 1.25 1.28 1.29
0.36 0.34 0.32 0.30 0.29 0.29 0.28 0.30 0.28 0.29 0.28 0.26 0.27 0.32 0.29 0.27 0.30 0.30 0.29 0.39 0.35 0.46 0.48 0.50 0.47 0.64 0.95 1.08 1.08 1.08 1.07 1.07 1.09 1.08 1.08 1.10 1.09 1.14 1.20 1.23 1.27 1.32 1.35 1.45 1.52 1.56 1.60 1.62 1.66 1.77 1.83 1.90 1.95 1.98 2.01 2.00 1.94 1.95 1.99 1.98 1.94 1.87 1.87 1.88 1.95 1.84 1.71 1.70 1.62 1.52 1.40 1.35 1.33 1.26 1.15 1.07 1.11 1.13 1.15 1.21 1.21 1.21 1.21 1.20 1.24 1.24
0.27 0.33 0.32 0.30 0.26 0.24 0.24 0.24 0.25 0.27 0.27 0.25 0.26 0.28 0.32 0.34 0.35 0.39 0.39 0.37 0.33 0.37 0.52 0.45 0.44 0.62 0.89 1.04 1.05 1.02 1.01 0.99 1.00 1.02 1.05 1.02 1.03 1.08 1.14 1.20 1.24 1.27 1.32 1.37 1.44 1.53 1.56 1.60 1.63 1.67 1.74 1.80 1.87 1.89 1.89 1.92 2.05 2.09 2.07 2.05 2.01 1.99 1.95 1.92 1.95 1.92 1.82 1.85 1.85 1.76 1.61 1.48 1.34 1.33 1.24 1.11 1.06 1.08 1.11 1.16 1.20 1.20 1.14 1.12 1.11 1.21
0.34 0.36 0.31 0.28 0.23 0.20 0.19 0.18 0.17 0.20 0.23 0.28 0.29 0.30 0.31 0.30 0.32 0.33 0.31 0.36 0.31 0.39 0.49 0.49 0.55 0.75 0.87 0.92 0.93 0.95 0.94 0.92 0.94 0.99 1.02 1.03 1.01 1.02 1.06 1.13 1.20 1.26 1.28 1.33 1.37 1.40 1.45 1.52 1.61 1.64 1.68 1.73 1.80 1.86 1.89 1.92 1.97 2.06 2.13 2.08 2.06 1.99 2.00 1.98 1.98 1.96 1.93 1.94 1.84 1.72 1.87 1.74 1.52 1.34 1.33 1.25 1.11 1.05 1.08 1.11 1.17 1.21 1.19 1.14 1.06 1.13
0.37 0.37 0.41 0.37 0.35 0.34 0.34 0.31 0.27 0.25 0.24 0.23 0.26 0.25 0.27 0.31 0.33 0.33 0.35 0.33 0.36 0.45 0.49 0.58 0.61 0.66 0.74 0.82 0.84 0.88 0.91 0.89 0.89 0.92 0.94 0.96 1.00 1.01 1.05 1.07 1.14 1.19 1.25 1.29 1.29 1.35 1.41 1.45 1.51 1.57 1.63 1.68 1.75 1.81 1.85 1.90 1.95 2.01 2.08 2.12 2.13 2.09 2.02 2.00 1.97 1.97 1.92 1.86 1.95 1.97 1.72 1.86 1.76 1.55 1.39 1.37 1.26 1.15 1.09 1.09 1.11 1.19 1.19 1.16 1.15 1.10
0.33 0.32 0.34 0.41 0.39 0.35 0.37 0.33 0.31 0.30 0.26 0.21 0.22 0.22 0.26 0.28 0.32 0.32 0.31 0.32 0.42 0.38 0.50 0.66 0.65 0.59 0.70 0.78 0.82 0.84 0.87 0.88 0.89 0.90 0.91 0.93 0.94 0.97 1.00 1.03 1.07 1.10 1.16 1.24 1.29 1.30 1.33 1.39 1.44 1.52 1.61 1.67 1.73 1.80 1.87 1.90 1.94 2.01 2.06 2.07 2.12 2.14 2.09 2.04 1.99 2.00 2.01 1.95 1.93 1.99 1.90 1.75 1.87 1.83 1.72 1.53 1.43 1.30 1.20 1.13 1.11 1.15 1.21 1.20 1.12 1.09
0.33 0.26 0.29 0.30 0.35 0.36 0.35 0.32 0.31 0.29 0.28 0.26 0.27 0.27 0.24 0.25 0.28 0.29 0.30 0.36 0.40 0.39 0.46 0.63 0.69 0.66 0.73 0.79 0.82 0.85 0.84 0.84 0.87 0.88 0.91 0.93 0.94 0.95 0.95 0.97 1.00 1.04 1.08 1.11 1.17 1.23 1.29 1.33 1.37 1.41 1.47 1.52 1.60 1.69 1.77 1.83 1.87 1.93 1.99 2.05 2.09 2.12 2.10 2.10 2.03 1.97 1.93 1.97 1.93 1.97 2.02 1.98 1.98 2.12 1.98 1.86 1.62 1.46 1.34 1.23 1.18 1.15 1.16 1.23 1.19 1.12
0.27 0.27 0.32 0.29 0.28 0.30 0.32 0.33 0.33 0.29 0.29 0.28 0.27 0.25 0.26 0.23 0.24 0.27 0.31 0.38 0.40 0.49 0.54 0.63 0.69 0.71 0.81 0.82 0.84 0.86 0.90 0.88 0.88 0.91 0.90 0.88 0.87 0.89 0.89 0.91 0.93 0.98 1.02 1.03 1.09 1.14 1.20 1.24 1.30 1.35 1.37 1.44 1.51 1.56 1.64 1.70 1.75 1.84 1.89 1.93 2.01 2.05 2.10 2.09 2.08 2.08 2.02 1.98 2.00 2.02 2.06 2.04 1.90 2.00 2.20 2.05 1.94 1.73 1.48 1.43 1.29 1.20 1.15 1.14 1.21 1.21
0.24 0.31 0.34 0.32 0.26 0.26 0.28 0.31 0.32 0.31 0.27 0.27 0.27 0.26 0.24 0.23 0.27 0.30 0.34 0.39 0.43 0.48 0.54 0.56 0.65 0.69 0.85 0.92 0.88 0.91 0.92 0.92 0.88 0.87 0.86 0.87 0.86 0.84 0.84 0.86 0.89 0.92 0.96 0.99 1.01 1.06 1.11 1.15 1.21 1.26 1.29 1.30 1.35 1.41 1.49 1.59 1.69 1.76 1.81 1.88 1.95 1.99 2.06 2.12 2.12 2.11 2.07 2.01 2.06 2.12 2.15 2.10 2.04 1.95 1.92 2.14 2.13 2.07 1.90 1.58 1.49 1.39 1.25 1.15 1.15 1.19
0.26 0.31 0.33 0.31 0.25 0.22 0.24 0.24 0.26 0.26 0.26 0.25 0.24 0.23 0.22 0.21 0.19 0.27 0.28 0.39 0.38 0.44 0.56 0.59 0.55 0.59 0.76 0.86 0.89 0.90 0.87 0.86 0.82 0.82 0.84 0.84 0.86 0.85 0.82 0.83 0.85 0.89 0.91 0.94 0.96 0.98 0.99 1.02 1.08 1.16 1.20 1.24 1.26 1.32 1.38 1.50 1.59 1.63 1.70 1.84 1.88 1.96 2.04 2.10 2.14 2.07 2.08 2.09 2.06 2.05 2.07 2.06 2.01 2.00 2.00 2.00 2.06 2.14 2.00 1.91 1.75 1.58 1.49 1.29 1.20 1.17
0.26 0.28 0.31 0.27 0.22 0.20 0.26 0.24 0.21 0.20 0.19 0.16 0.15 0.17 0.22 0.21 0.20 0.27 0.32 0.42 0.46 0.44 0.52 0.46 0.59 0.74 0.76 0.79 0.76 0.79 0.82 0.83 0.84 0.83 0.81 0.83 0.85 0.85 0.84 0.82 0.86 0.86 0.88 0.90 0.90 0.92 0.92 0.93 0.96 1.03 1.12 1.14 1.17 1.21 1.28 1.35 1.47 1.59 1.70 1.78 1.86 1.98 2.00 2.02 2.06 2.04 2.03 2.10 2.11 2.08 2.07 2.08 2.05 2.05 2.02 2.04 2.04 1.98 2.08 2.00 1.84 1.73 1.60 1.51 1.35 1.27
0.32 0.31 0.30 0.28 0.22 0.23 0.27 0.27 0.24 0.19 0.15 0.16 0.22 0.20 0.21 0.20 0.21 0.21 0.32 0.42 0.48 0.48 0.52 0.58 0.70 0.75 0.77 0.75 0.72 0.75 0.77 0.79 0.83 0.88 0.89 0.86 0.82 0.81 0.81 0.86 0.85 0.86 0.86 0.85 0.87 0.88 0.90 0.92 0.94 0.96 1.03 1.09 1.14 1.16 1.23 1.23 1.33 1.48 1.57 1.64 1.76 1.83 1.89 1.92 1.95 1.93 1.94 2.00 2.06 2.11 2.13 2.10 2.08 2.03 2.06 2.16 2.14 2.16 2.04 1.97 1.97 1.97 1.87 1.67 1.57 1.43
0.26 0.27 0.27 0.32 0.23 0.24 0.29 0.26 0.23 0.18 0.18 0.34 0.30 0.32 0.29 0.30 0.25 0.26 0.39 0.49 0.50 0.53 0.57 0.59 0.66 0.70 0.72 0.78 0.81 0.78 0.83 0.87 0.87 0.86 0.85 0.87 0.86 0.81 0.80 0.80 0.80 0.82 0.78 0.79 0.79 0.84 0.85 0.87 0.88 0.92 0.97 1.01 1.09 1.10 1.18 1.17 1.17 1.28 1.39 1.47 1.55 1.62 1.71 1.83 1.87 1.88 1.90 1.91 1.96 2.01 2.02 2.04 2.07 2.09 2.11 2.07 2.10 2.08 2.09 2.01 2.02 2.07 2.06 1.95 1.80 1.71
0.30 0.18 0.28 0.27 0.25 0.29 0.28 0.27 0.20 0.18 0.36 0.35 0.35 0.34 0.35 0.36 0.41 0.42 0.42 0.48 0.51 0.54 0.55 0.55 0.62 0.64 0.69 0.71 0.77 0.80 0.78 0.82 0.84 0.86 0.85 0.84 0.81 0.79 0.76 0.76 0.79 0.78 0.77 0.76 0.75 0.78 0.80 0.79 0.79 0.84 0.91 1.00 1.04 1.01 1.09 1.17 1.17 1.11 1.17 1.31 1.38 1.47 1.54 1.62 1.70 1.77 1.84 1.85 1.91 1.97 1.99 1.97 1.99 2.04 2.08 2.09 2.09 2.06 2.09 2.10 2.07 2.13 2.16 2.09 2.06 1.97
0.30 0.30 0.30 0.25 0.21 0.22 0.27 0.26 0.21 0.32 0.29 0.32 0.31 0.31 0.30 0.27 0.28 0.27 0.29 0.44 0.46 0.53 0.51 0.51 0.56 0.58 0.63 0.65 0.71 0.72 0.72 0.73 0.70 0.76 0.85 0.83 0.81 0.78 0.76 0.76 0.77 0.76 0.76 0.77 0.76 0.78 0.80 0.79 0.75 0.80 0.87 0.90 0.97 0.96 0.99 1.12 1.18 1.16 1.12 1.10 1.15 1.32 1.42 1.46 1.49 1.56 1.65 1.70 1.76 1.85 1.97 2.01 1.98 1.98 2.00 2.04 2.06 2.04 2.04 2.00 2.04 2.06 2.06 1.89 1.82 1.88
0.25 0.26 0.35 0.25 0.22 0.19 0.23 0.23 0.23 0.20 0.17 0.28 0.34 0.37 0.31 0.31 0.33 0.31 0.24 0.34 0.48 0.45 0.52 0.55 0.52 0.52 0.55 0.57 0.62 0.62 0.65 0.54 0.62 0.71 0.83 0.82 0.79 0.76 0.77 0.75 0.72 0.71 0.70 0.71 0.72 0.76 0.77 0.75 0.74 0.77 0.81 0.80 0.86 0.89 0.93 1.03 1.12 1.13 1.13 1.09 1.07 1.15 1.21 1.26 1.31 1.41 1.47 1.54 1.59 1.69 1.83 1.94 2.00 1.98 1.97 1.99 2.01 2.03 2.04 2.05 2.01 2.05 2.11 1.94 1.86 1.78
0.23 0.26 0.31 0.27 0.30 0.24 0.20 0.18 0.22 0.19 0.25 0.36 0.36 0.35 0.38 0.36 0.36 0.31 0.19 0.23 0.44 0.47 0.44 0.51 0.52 0.52 0.50 0.52 0.54 0.56 0.52 0.44 0.53 0.63 0.74 0.74 0.70 0.69 0.71 0.73 0.72 0.69 0.69 0.66 0.67 0.65 0.64 0.65 0.70 0.73 0.75 0.76 0.78 0.80 0.85 0.95 1.01 1.03 1.02 1.05 1.03 1.10 1.13 1.13 1.17 1.24 1.34 1.40 1.46 1.53 1.63 1.79 1.93 2.00 2.01 1.98 1.98 2.00 2.00 2.03 2.07 2.12 2.15 2.11 2.03 1.91
0.21 0.19 0.16 0.14 0.19 0.25 0.24 0.17 0.15 0.25 0.34 0.36 0.38 0.39 0.36 0.38 0.28 0.22 0.13 0.17 0.41 0.44 0.44 0.48 0.49 0.50 0.50 0.53 0.56 0.50 0.42 0.40 0.52 0.56 0.64 0.66 0.65 0.67 0.67 0.67 0.69 0.69 0.70 0.66 0.70 0.64 0.58 0.59 0.60 0.63 0.65 0.70 0.73 0.75 0.78 0.88 0.92 0.94 0.96 0.98 1.00 1.04 1.05 1.10 1.14 1.17 1.23 1.32 1.39 1.41 1.46 1.55 1.66 1.82 1.91 1.98 2.03 2.08 2.14 2.15 2.15 2.15 2.12 2.11 2.09 2.03
0.18 0.19 0.19 0.15 0.14 0.16 0.18 0.21 0.21 0.29 0.37 0.41 0.41 0.37 0.35 0.30 0.24 0.19 0.16 0.33 0.48 0.47 0.43 0.44 0.50 0.50 0.55 0.51 0.43 0.40 0.48 0.54 0.59 0.60 0.65 0.62 0.62 0.64 0.64 0.67 0.68 0.69 0.67 0.67 0.64 0.62 0.59 0.59 0.60 0.57 0.58 0.65 0.68 0.72 0.76 0.78 0.78 0.79 0.84 0.89 0.95 0.98 1.01 1.08 1.14 1.17 1.18 1.21 1.26 1.34 1.39 1.41 1.46 1.57 1.74 1.90 2.04 2.16 2.20 2.22 2.21 2.16 2.12 2.05 2.07 2.06
0.22 0.21 0.22 0.20 0.17 0.18 0.20 0.16 0.19 0.28 0.42 0.42 0.41 0.38 0.36 0.27 0.20 0.18 0.44 0.53 0.52 0.51 0.52 0.53 0.51 0.53 0.55 0.47 0.31 0.47 0.53 0.51 0.56 0.56 0.57 0.57 0.57 0.60 0.62 0.65 0.67 0.67 0.66 0.62 0.59 0.60 0.60 0.57 0.55 0.55 0.59 0.61 0.61 0.65 0.66 0.67 0.65 0.68 0.71 0.78 0.84 0.93 1.02 1.05 1.07 1.11 1.15 1.15 1.16 1.24 1.29 1.35 1.39 1.44 1.55 1.68 1.83 1.95 2.04 2.16 2.20 2.17 2.11 2.08 2.06 2.03
0.28 0.22 0.19 0.20 0.21 0.19 0.22 0.21 0.21 0.20 0.37 0.44 0.40 0.37 0.37 0.27 0.40 0.50 0.56 0.55 0.56 0.54 0.53 0.55 0.55 0.54 0.49 0.47 0.43 0.50 0.49 0.46 0.46 0.47 0.51 0.54 0.54 0.56 0.58 0.61 0.59 0.53 0.52 0.49 0.53 0.56 0.54 0.50 0.50 0.52 0.51 0.54 0.57 0.58 0.60 0.59 0.59 0.61 0.65 0.65 0.74 0.87 0.96 1.02 1.02 1.02 1.06 1.10 1.11 1.12 1.17 1.26 1.30 1.34 1.41 1.48 1.59 1.70 1.81 1.95 2.02 2.09 2.14 2.10 2.07 2.02
0.35 0.25 0.26 0.26 0.29 0.22 0.20 0.18 0.22 0.39 0.46 0.49 0.42 0.39 0.42 0.49 0.53 0.55 0.50 0.48 0.52 0.52 0.50 0.51 0.52 0.50 0.45 0.47 0.42 0.41 0.43 0.42 0.40 0.43 0.45 0.46 0.45 0.48 0.53 0.54 0.51 0.48 0.46 0.49 0.49 0.52 0.50 0.49 0.49 0.49 0.50 0.51 0.53 0.55 0.55 0.55 0.52 0.55 0.57 0.61 0.70 0.76 0.88 0.96 0.98 0.97 0.99 1.03 1.06 1.06 1.10 1.13 1.16 1.25 1.34 1.41 1.42 1.46 1.53 1.65 1.81 1.96 2.03 2.06 2.04 1.98
0.30 0.28 0.36 0.32 0.38 0.31 0.31 0.32 0.40 0.51 0.51 0.52 0.52 0.51 0.54 0.55 0.59 0.51 0.53 0.50 0.49 0.49 0.54 0.50 0.50 0.50 0.48 0.46 0.44 0.42 0.39 0.39 0.40 0.42 0.41 0.42 0.44 0.46 0.45 0.44 0.45 0.44 0.45 0.45 0.47 0.50 0.48 0.46 0.46 0.46 0.48 0.51 0.53 0.54 0.55 0.55 0.52 0.52 0.52 0.60 0.67 0.69 0.71 0.78 0.86 0.91 0.95 0.98 0.99 1.01 1.03 1.02 1.07 1.13 1.24 1.30 1.29 1.30 1.40 1.46 1.59 1.70 1.87 1.95 1.98 1.99
0.38 0.37 0.40 0.34 0.35 0.43 0.44 0.50 0.52 0.49 0.54 0.54 0.53 0.60 0.56 0.55 0.56 0.51 0.47 0.50 0.49 0.52 0.51 0.47 0.49 0.51 0.51 0.48 0.41 0.40 0.37 0.38 0.41 0.40 0.41 0.45 0.45 0.45 0.45 0.45 0.45 0.46 0.46 0.47 0.47 0.47 0.45 0.46 0.46 0.46 0.45 0.48 0.52 0.53 0.55 0.55 0.55 0.51 0.54 0.58 0.60 0.61 0.59 0.59 0.66 0.78 0.87 0.91 0.93 0.94 0.96 0.94 0.99 1.09 1.15 1.12 1.17 1.22 1.33 1.40 1.41 1.49 1.64 1.76 1.84 1.88
0.38 0.39 0.35 0.28 0.32 0.28 0.28 0.43 0.42 0.45 0.52 0.54 0.50 0.55 0.59 0.62 0.57 0.45 0.41 0.38 0.46 0.48 0.53 0.54 0.52 0.51 0.51 0.48 0.40 0.38 0.40 0.41 0.39 0.41 0.44 0.45 0.42 0.43 0.43 0.42 0.44 0.44 0.44 0.44 0.47 0.46 0.47 0.44 0.45 0.44 0.45 0.44 0.49 0.51 0.53 0.54 0.55 0.57 0.59 0.60 0.63 0.63 0.63 0.62 0.61 0.64 0.69 0.76 0.81 0.85 0.89 0.91 0.93 0.98 1.03 1.09 1.12 1.15 1.18 1.29 1.38 1.41 1.44 1.55 1.65 1.75
0.42 0.50 0.39 0.36 0.33 0.28 0.29 0.37 0.44 0.50 0.52 0.54 0.51 0.49 0.50 0.53 0.59 0.54 0.47 0.42 0.47 0.51 0.52 0.52 0.50 0.48 0.47 0.43 0.42 0.39 0.38 0.39 0.38 0.40 0.39 0.41 0.43 0.42 0.41 0.41 0.41 0.42 0.46 0.47 0.47 0.49 0.47 0.46 0.44 0.44 0.45 0.45 0.48 0.51 0.53 0.54 0.54 0.57 0.58 0.60 0.61 0.63 0.64 0.60 0.58 0.57 0.60 0.66 0.71 0.75 0.81 0.86 0.88 0.92 0.99 1.04 1.05 1.04 1.09 1.15 1.26 1.29 1.30 1.35 1.45 1.56
0.53 0.52 0.41 0.48 0.41 0.41 0.39 0.39 0.43 0.46 0.46 0.50 0.52 0.50 0.52 0.53 0.53 0.54 0.53 0.51 0.51 0.53 0.54 0.53 0.48 0.44 0.42 0.42 0.47 0.46 0.43 0.43 0.43 0.43 0.42 0.43 0.43 0.44 0.43 0.41 0.44 0.45 0.46 0.45 0.46 0.46 0.47 0.46 0.45 0.45 0.45 0.46 0.49 0.50 0.52 0.52 0.54 0.56 0.57 0.59 0.61 0.64 0.63 0.61 0.61 0.61 0.64 0.67 0.68 0.68 0.73 0.77 0.84 0.90 0.91 0.91 0.94 1.02 1.06 1.07 1.09 1.12 1.21 1.37 1.44 1.43
0.50 0.45 0.51 0.47 0.42 0.40 0.41 0.49 0.49 0.38 0.37 0.47 0.51 0.53 0.52 0.53 0.51 0.54 0.58 0.56 0.54 0.54 0.55 0.53 0.52 0.46 0.45 0.45 0.46 0.47 0.43 0.45 0.46 0.46 0.41 0.43 0.44 0.44 0.44 0.44 0.45 0.45 0.44 0.46 0.47 0.46 0.46 0.47 0.47 0.46 0.46 0.48 0.50 0.51 0.51 0.52 0.53 0.56 0.59 0.60 0.62 0.62 0.61 0.62 0.61 0.59 0.59 0.64 0.66 0.66 0.66 0.71 0.79 0.80 0.80 0.83 0.88 0.91 0.96 1.07 1.09 1.10 1.09 1.16 1.31 1.36
0.49 0.55 0.52 0.45 0.43 0.42 0.57 0.58 0.59 0.58 0.54 0.55 0.61 0.64 0.64 0.63 0.58 0.55 0.54 0.55 0.57 0.57 0.57 0.58 0.55 0.55 0.49 0.47 0.49 0.49 0.49 0.47 0.48 0.50 0.49 0.46 0.47 0.49 0.47 0.45 0.43 0.44 0.45 0.46 0.43 0.42 0.43 0.44 0.46 0.47 0.47 0.47 0.48 0.48 0.49 0.50 0.52 0.53 0.55 0.58 0.61 0.62 0.61 0.62 0.62 0.62 0.61 0.62 0.64 0.68 0.69 0.68 0.68 0.71 0.74 0.77 0.79 0.84 0.86 0.90 1.02 1.08 1.09 1.11 1.16 1.20
Wind_Speed
19 18 19 20 20 20 21 20 18 17 14 11 12 13 13 12 10 11 10 10 11 10 11 11 9 9 12 15 16 17 19 17 16 16 15 15 17 18 18 18 18 17 17 17 17 17 17 16 16 16 15 15 15 14 15 14 14 13 12 13 13 12 12 12 12 11 11 11 10 10 9 9 9 8 8 8 8 8 9 9 9 10 10 10 10 10
21 20 20 21 21 21 20 20 20 19 16 13 11 12 14 12 10 11 11 11 11 10 11 11 9 8 10 13 14 16 18 17 18 19 17 16 17 18 18 18 18 17 17 17 18 17 17 17 16 16 15 15 15 15 15 15 14 14 13 13 13 12 12 12 12 12 11 11 10 10 9 9 8 8 8 8 8 8 9 9 9 9 10 10 10 10
21 22 21 20 20 21 20 20 21 18 17 14 12 12 13 12 10 10 11 12 11 9 11 11 9 9 9 11 13 15 16 16 17 18 17 17 18 18 18 18 18 18 18 18 18 18 17 17 17 16 16 15 15 15 15 15 15 14 13 13 13 12 12 12 12 12 11 11 10 9 9 8 8 8 8 8 8 8 9 9 9 9 9 10 10 10
21 21 22 21 19 21 21 20 20 19 18 15 13 13 13 13 11 10 12 13 12 10 11 12 9 9 9 9 10 13 15 16 16 17 15 15 16 16 17 18 18 18 18 18 18 18 18 17 17 16 16 16 15 15 15 15 15 14 14 14 13 13 12 12 12 12 11 11 10 9 9 8 8 8 8 8 8 8 8 8 9 9 9 9 9 10
21 20 22 22 20 21 21 21 21 19 18 16 15 13 13 14 12 10 13 14 12 11 11 12 9 8 10 10 10 12 15 16 16 17 15 14 16 15 15 17 18 18 18 18 18 18 18 18 17 16 16 16 16 16 16 16 15 15 14 14 14 13 12 12 13 12 12 11 11 10 9 9 9 8 8 8 8 8 8 8 8 8 9 9 9 9
21 20 22 23 21 21 21 20 21 19 17 17 17 14 13 15 12 11 15 14 12 12 13 13 9 7 10 10 11 12 14 15 15 16 16 15 16 16 15 16 18 19 18 18 18 18 18 18 17 16 16 16 16 16 16 16 16 15 15 15 14 13 13 13 13 13 12 12 11 11 10 9 9 9 8 8 8 7 8 8 8 8 8 9 9 8
20 21 22 23 22 22 21 19 19 19 18 16 17 17 15 16 14 12 14 13 12 12 14 16 10 7 9 8 10 12 13 13 13 15 16 16 17 17 16 16 18 19 18 18 18 18 18 18 17 17 17 16 16 16 16 16 16 16 16 15 14 14 13 13 13 13 12 12 12 11 11 10 9 9 8 8 8 7 7 7 8 8 8 8 8 8
21 22 22 24 23 22 21 19 19 20 20 17 16 18 18 17 15 14 14 13 11 10 14 17 13 8 8 8 9 12 13 13 12 13 15 16 18 17 16 17 18 19 19 19 18 18 18 18 17 17 17 16 16 16 17 17 16 16 16 15 15 14 14 13 14 13 13 12 12 12 11 10 9 9 9 8 8 7 7 7 8 8 8 8 8 8
21 22 22 24 23 22 21 20 20 20 21 19 15 15 18 18 17 15 14 13 11 10 12 16 15 10 8 8 9 11 13 13 12 13 15 15 16 17 17 18 17 17 18 19 19 19 19 18 17 17 17 17 16 17 17 17 17 17 16 16 15 15 14 14 14 14 14 13 13 12 11 10 10 9 9 9 8 8 8 8 8 7 8 8 7 8
19 21 21 22 22 21 21 21 21 20 21 21 15 13 16 19 18 15 13 12 11 12 12 14 16 12 8 8 9 9 12 12 12 13 14 16 16 16 17 18 17 17 17 17 18 19 19 19 18 18 17 17 17 16 16 17 17 17 17 16 16 15 15 15 15 14 14 14 13 13 12 11 10 10 9 9 9 9 8 8 8 7 7 7 7 7
17 19 20 22 21 20 20 21 21 19 20 21 17 15 14 15 18 16 13 13 13 13 13 13 15 13 10 10 9 9 10 11 11 11 12 15 17 17 18 19 18 17 17 16 17 18 20 19 18 18 18 18 17 17 17 17 17 17 17 17 17 16 15 15 15 15 15 14 14 14 13 12 12 11 10 10 10 9 9 8 8 8 7 7 7 7
18 18 19 21 22 19 18 19 20 19 20 20 18 17 15 14 16 16 15 16 14 13 14 14 13 11 11 11 10 9 9 10 11 11 11 13 16 17 18 18 16 16 16 16 16 17 19 20 19 19 19 18 17 17 17 17 17 17 17 17 17 17 16 16 16 15 15 14 14 14 14 13 13 12 11 11 10 10 9 9 8 8 8 7 7 7
19 18 18 20 22 21 19 18 18 18 20 21 19 18 18 16 15 15 15 16 15 13 15 14 11 9 9 11 11 10 9 9 10 11 11 12 14 15 16 16 16 16 17 17 17 17 18 19 20 20 19 19 18 18 18 18 17 17 17 18 18 18 17 16 16 16 16 15 15 15 15 14 13 12 12 11 11 11 10 9 9 9 8 8 7 7
19 18 19 21 21 22 22 20 18 18 22 23 20 19 19 17 15 14 14 14 14 14 15 13 10 10 10 11 11 10 9 9 9 11 12 11 12 14 14 15 16 16 17 18 19 18 18 19 21 21 20 20 19 19 19 18 18 17 17 18 18 18 18 17 17 17 16 16 15 15 15 15 14 13 13 12 11 11 11 10 10 9 9 8 8 8
20 18 20 22 19 20 24 22 15 15 21 25 21 18 20 18 15 14 13 14 14 14 14 13 10 12 13 12 11 11 10 9 9 10 11 11 10 11 13 14 15 16 16 18 19 19 19 19 20 20 20 20 20 19 19 18 18 18 18 18 18 18 18 18 18 17 17 17 16 16 16 16 15 14 13 13 12 12 11 11 10 10 9 9 8 8
21 19 20 23 18 19 26 25 17 15 18 22 23 20 19 18 16 14 14 15 15 13 13 12 11 11 12 12 12 12 11 10 8 9 10 10 10 10 10 12 15 16 16 17 18 19 20 19 19 20 19 20 20 20 19 19 18 19 19 19 19 18 18 18 18 18 18 17 17 16 16 16 16 15 15 14 13 13 12 12 11 10 10 9 9 8
19 16 18 22 18 19 25 25 22 19 16 18 23 24 20 18 16 15 14 16 17 14 12 12 13 13 13 12 12 12 11 10 9 8 9 10 10 10 10 10 13 15 15 16 18 19 19 18 19 20 20 20 20 20 20 20 19 19 19 19 19 19 19 18 18 18 18 18 18 17 17 17 17 17 16 15 15 14 13 12 12 11 10 10 9 9
16 15 18 20 18 19 23 23 23 23 19 16 19 21 21 20 18 16 13 14 17 15 13 15 17 16 14 13 13 12 11 11 10 9 8 9 9 9 9 9 11 14 14 15 17 18 18 18 18 18 19 19 19 20 20 20 20 19 19 20 20 20 20 19 19 19 18 19 18 18 18 18 17 17 17 17 16 15 14 14 13 12 11 11 10 10
13 14 18 20 19 20 21 22 22 24 24 20 16 17 20 19 19 19 15 13 16 15 14 16 17 16 14 14 15 13 11 11 11 9 8 8 9 8 9 9 9 11 13 13 14 15 16 17 17 18 17 18 19 20 20 20 20 21 20 20 20 20 20 19 19 19 19 19 19 19 19 18 18 18 18 17 17 16 16 15 14 13 13 12 11 11
12 13 15 18 19 20 20 22 22 24 24 22 19 19 20 17 15 20 20 15 15 14 15 17 15 13 13 14 15 12 11 11 11 10 8 8 9 9 9 9 9 9 10 10 10 10 12 14 17 18 18 17 17 18 19 19 20 21 20 20 21 20 20 20 19 19 19 20 20 19 19 19 19 18 18 18 18 18 17 16 15 14 14 13 13 12
12 13 13 14 18 18 20 22 21 21 22 21 20 19 21 18 14 17 21 19 15 13 14 17 14 12 13 14 14 13 11 10 10 10 10 8 9 9 9 10 10 10 9 8 7 8 10 11 14 17 18 17 16 17 18 19 18 18 19 20 21 21 20 20 20 20 19 20 20 20 20 20 20 19 19 19 19 19 18 17 16 16 15 14 14 13
11 13 11 12 16 17 18 20 18 18 19 19 20 20 20 19 16 15 19 21 17 11 11 16 14 13 16 15 13 12 11 10 9 9 10 10 9 9 9 10 10 11 11 9 7 7 8 9 11 14 16 16 16 17 18 18 18 18 20 20 20 20 20 20 20 20 20 20 20 21 21 21 21 20 20 20 20 20 19 18 18 17 16 16 15 14
12 12 10 10 13 13 15 18 17 18 18 18 19 19 18 19 18 16 15 18 17 10 10 14 14 13 16 16 14 12 11 11 9 9 10 10 9 9 9 9 9 10 11 11 9 8 8 8 9 11 13 15 16 17 17 18 18 19 20 20 19 19 19 20 20 20 20 19 20 21 21 22 21 21 21 21 21 21 20 20 19 18 17 17 16 16
14 14 10 9 11 12 13 17 19 19 19 20 21 19 16 16 16 14 12 14 16 12 10 13 14 15 17 16 15 13 12 12 10 9 10 10 9 10 9 9 8 9 10 11 10 9 8 8 8 9 10 12 14 15 16 16 17 18 19 18 18 19 19 19 20 20 20 19 20 20 21 22 22 22 22 22 21 22 21 21 20 20 19 18 17 17
14 14 13 12 13 14 14 16 19 21 20 21 22 19 16 15 14 12 12 14 17 14 11 12 14 16 18 16 15 15 14 14 12 11 11 10 9 10 10 9 9 8 8 9 10 10 9 8 8 9 9 10 12 13 15 15 16 18 19 18 18 19 19 20 20 21 21 21 21 21 21 22 23 23 23 23 23 23 22 22 21 21 20 20 19 18
13 12 13 13 12 13 13 13 17 21 20 20 21 19 18 18 16 14 13 15 16 13 11 13 15 16 18 18 16 15 15 14 12 11 11 11 10 10 10 9 9 9 8 8 9 10 10 9 9 9 9 10 10 12 13 14 14 15 16 17 18 19 20 20 21 21 22 22 22 22 23 23 23 24 24 24 23 23 23 23 22 21 21 21 20 19
13 12 13 13 10 9 11 11 12 16 20 22 22 20 19 19 17 16 15 14 14 13 12 15 17 18 18 19 17 16 15 14 13 12 11 11 11 10 10 10 9 9 8 8 8 8 9 10 9 9 10 10 10 11 12 13 14 14 14 15 16 18 20 20 20 21 22 23 23 24 25 25 24 23 24 24 24 24 24 24 23 22 22 21 21 20
14 13 13 15 13 10 10 11 11 12 16 22 22 19 20 20 17 18 18 15 13 14 15 17 19 19 19 19 18 16 15 13 12 12 11 11 11 11 11 11 10 9 8 8 8 8 9 9 9 9 10 11 11 11 12 14 14 14 14 15 15 17 18 19 19 20 21 22 23 24 25 26 26 25 23 24 24 24 24 24 24 23 22 22 22 21
15 13 13 16 15 13 11 11 12 11 10 15 16 16 18 20 19 20 19 16 13 15 18 19 19 19 19 19 17 16 15 13 12 12 11 11 12 12 11 11 10 9 9 8 8 8 9 9 9 9 10 10 10 10 11 13 14 14 15 15 16 16 17 18 18 19 20 20 21 23 24 25 26 27 25 24 24 25 25 24 24 24 23 23 22 22
15 13 12 14 15 15 14 12 13 12 10 12 14 14 15 16 18 20 19 16 14 15 19 21 20 19 19 19 17 15 14 14 13 12 11 10 11 12 12 11 10 10 10 9 9 9 9 9 9 9 9 9 9 10 11 12 13 14 15 16 16 16 17 17 17 18 19 20 20 21 22 23 25 26 26 24 24 24 25 25 24 24 24 24 23 22
15 14 13 14 14 15 17 15 15 15 14 15 15 15 16 16 16 17 17 16 16 16 19 21 21 20 19 18 17 16 16 15 14 14 13 11 11 12 12 11 11 11 11 11 10 10 9 9 9 9 9 9 9 9 10 11 11 12 14 15 16 17 17 18 18 17 18 20 21 21 21 22 23 25 25 25 24 23 24 24 25 24 24 24 24 23
14 15 15 16 16 16 18 18 18 17 17 19 19 18 18 18 17 17 17 17 16 17 19 21 21 21 21 20 18 17 17 16 15 15 15 14 13 12 12 12 11 12 12 12 11 11 10 9 9 9 9 9 9 9 9 10 11 11 12 13 15 16 18 18 18 18 18 20 21 22 22 22 22 23 23 23 24 24 23 23 24 24 24 24 25 25
13 13 13 15 16 16 17 18 17 17 17 19 21 21 21 20 19 18 17 16 16 17 20 22 21 21 21 21 19 19 19 18 17 16 16 16 16 15 14 13 13 13 13 13 12 12 11 11 11 10 10 10 10 10 10 10 11 12 12 12 13 14 16 17 18 18 19 19 21 22 22 22 22 22 23 23 23 24 24 24 25 25 25 24 25 25
13 13 12 13 14 15 16 16 16 17 17 15 15 18 20 20 20 20 18 16 16 17 17 20 22 21 21 21 21 20 20 19 18 18 17 17 17 16 15 14 14 15 15 14 14 14 13 13 12 12 12 12 12 12 11 11 11 12 13 13 13 14 15 16 17 19 19 20 20 20 21 22 22 23 24 25 25 25 25 26 26 27 26 26 25 25
12 13 12 12 13 13 13 15 15 16 16 14 13 14 15 16 17 18 16 16 17 17 17 18 21 21 21 21 21 20 19 19 18 18 19 18 17 17 17 16 16 16 16 16 16 15 15 14 14 14 14 14 14 13 13 12 12 13 13 13 14 14 15 15 16 18 19 20 20 20 21 22 22 23 24 25 26 26 27 27 27 27 27 26 25 24
10 12 12 12 13 13 13 14 14 13 14 15 14 15 15 14 15 17 17 17 18 18 18 20 20 20 20 20 21 20 20 20 20 19 19 19 19 19 18 18 17 17 17 17 17 16 16 16 16 16 16 16 16 15 15 14 14 14 14 14 14 14 15 15 16 16 18 19 20 21 21 21 22 22 23 24 25 27 28 28 27 26 25 24 24 24
9 10 10 11 13 14 14 13 13 12 14 16 16 17 17 17 17 18 19 20 20 20 20 21 22 22 21 22 23 22 22 22 22 21 20 20 20 20 19 18 19 19 18 18 18 18 17 17 18 18 18 18 17 17 17 17 16 16 15 15 15 15 15 16 16 17 17 18 19 20 22 22 22 22 23 24 24 26 27 28 27 26 25 24 24 24
10 10 10 10 11 13 14 13 13 13 14 16 16 16 16 16 16 17 19 20 21 21 21 22 23 24 23 23 23 23 23 23 22 21 22 21 20 20 20 20 20 20 20 20 20 19 19 19 20 20 20 20 19 19 19 19 18 18 17 17 17 16 16 16 17 17 18 18 18 19 21 22 22 22 23 23 24 24 25 26 27 27 26 26 25 25
10 10 11 11 11 12 13 14 14 12 12 13 14 14 14 14 14 16 18 20 21 21 21 22 23 23 22 21 21 22 22 22 21 22 23 22 21 21 22 21 21 21 21 22 21 21 22 22 22 22 22 21 21 21 22 21 20 20 19 19 19 18 18 18 18 18 18 19 19 19 20 21 22 22 22 23 24 25 25 25 25 26 27 27 26 26
10 10 11 12 12 12 13 14 13 12 11 13 14 13 13 13 14 16 18 19 20 21 20 21 22 22 21 21 22 22 22 21 22 24 24 23 22 23 23 23 23 23 23 23 23 23 24 24 24 24 24 23 23 23 24 23 22 22 22 22 21 21 20 20 20 19 19 20 20 20 20 20 21 22 23 23 24 25 25 25 25 26 26 26 27 27
10 10 11 12 13 13 13 14 13 11 12 14 14 14 14 14 15 16 16 16 18 19 18 19 21 21 21 22 22 22 21 22 23 24 24 24 24 24 24 24 24 24 24 24 24 25 25 25 25 25 26 25 25 26 26 25 25 26 25 25 24 23 23 23 22 22 21 21 21 21 21 21 21 22 23 23 23 24 24 24 25 25 26 27 27 28
10 11 12 12 13 13 13 14 13 12 13 14 14 14 14 15 15 16 16 16 17 18 17 18 19 20 20 21 21 20 21 22 23 24 24 25 26 26 25 25 25 25 25 25 25 25 26 26 26 27 27 27 27 28 28 28 28 28 28 28 27 26 26 26 25 24 24 23 22 22 22 22 22 22 22 23 24 24 23 24 24 25 26 27 28 28
10 11 12 12 13 13 14 14 14 13 13 14 14 14 15 15 15 16 16 16 17 18 18 19 19 20 21 21 21 21 21 22 23 24 25 26 26 26 26 26 26 26 26 26 26 26 26 26 27 28 28 29 29 29 30 30 30 30 30 30 30 29 29 28 28 27 27 26 25 24 23 23 23 23 23 23 24 24 24 24 24 25 25 26 28 29
11 11 12 11 11 13 14 14 13 13 13 14 14 14 14 14 15 15 16 17 17 19 20 20 21 21 22 22 22 22 22 22 23 24 25 25 26 26 26 26 26 26 27 27 27 27 26 27 27 28 29 29 30 30 30 31 31 32 32 32 32 31 31 31 30 30 29 28 28 27 26 25 25 24 24 24 24 24 24 25 25 25 25 25 26 28
11 11 12 12 12 12 12 12 13 13 14 14 14 14 14 14 15 16 16 17 18 19 20 21 22 22 22 23 23 23 24 24 24 25 25 26 26 26 26 26 26 26 27 27 27 27 27 28 28 29 29 30 30 30 30 31 32 32 33 33 33 33 33 33 33 33 32 31 31 30 29 28 27 26 26 26 26 26 25 25 25 25 25 25 26 26
12 12 13 14 14 14 14 13 14 15 15 15 14 14 15 16 16 17 18 19 19 19 20 21 21 22 23 23 23 25 25 25 25 26 26 26 26 26 27 27 27 27 27 28 28 28 28 29 29 30 30 30 31 31 31 31 32 32 33 33 34 34 35 35 35 35 35 34 34 33 33 32 30 29 28 28 28 27 27 26 26 26 26 26 26 27
14 14 14 14 15 15 14 14 15 16 17 17 16 16 16 17 17 18 19 20 20 21 21 21 21 21 22 23 24 25 25 25 26 26 26 26 27 27 27 28 28 28 28 28 29 29 29 29 30 30 31 31 31 32 32 33 33 33 33 34 34 34 35 36 36 37 37 36 36 36 35 34 34 32 31 30 29 29 29 28 27 27 27 27 27 27
13 14 15 15 16 16 16 15 15 16 17 18 18 18 17 18 18 19 20 21 21 22 22 22 22 23 23 24 24 24 25 25 25 25 25 26 26 27 27 28 28 28 28 28 29 29 29 30 30 31 31 31 32 32 33 33 34 34 35 35 35 35 35 36 36 37 37 38 38 37 37 37 36 35 34 33 32 32 31 30 29 29 29 29 29 29
13 14 15 15 16 17 18 18 18 19 19 20 20 20 19 20 20 20 20 20 21 22 23 23 23 24 24 25 24 24 24 24 24 24 25 25 25 26 26 27 28 28 28 28 29 29 29 30 31 31 32 32 32 33 33 34 34 35 35 36 36 36 36 36 37 37 37 38 38 38 38 38 38 37 36 35 35 34 33 33 32 32 31 31 31 30
16 17 17 17 17 18 17 17 18 19 20 20 20 21 21 21 21 21 21 21 22 23 23 24 24 25 25 25 25 25 25 25 25 25 25 25 25 25 26 26 27 27 27 28 28 29 30 31 31 32 32 32 33 33 33 34 35 35 36 36 37 37 38 38 38 38 38 38 38 38 38 38 38 38 38 38 37 37 36 36 35 35 34 33 32 32
18 18 18 19 19 18 17 17 18 19 19 19 19 21 21 22 22 23 23 23 23 23 23 24 24 24 25 25 26 26 25 25 26 26 26 26 26 25 26 26 26 26 27 27 28 29 30 31 31 32 32 33 33 34 34 35 35 36 37 37 38 38 39 39 39 39 39 39 39 38 38 38 39 39 39 39 39 38 38 38 37 37 37 36 35 34
Wind_Direction
210 212 212 213 213 212 213 215 217 221 229 234 215 207 213 214 205 202 200 198 199 197 195 195 192 197 201 197 192 189 189 189 190 195 200 195 184 183 183 181 180 180 180 178 177 177 177 178 179 178 177 175 174 172 169 168 168 167 165 163 162 162 162 161 159 157 155 152 148 144 140 134 129 124 120 116 111 111 110 110 110 109 109 111 113 115
211 215 215 214 215 215 216 216 218 226 230 232 225 209 210 218 207 194 195 193 194 196 191 188 183 184 195 197 194 191 188 188 192 196 200 198 189 185 185 181 180 182 180 179 179 178 178 178 180 179 179 177 174 172 171 171 171 169 168 165 165 166 166 166 163 160 158 155 152 148 145 140 134 129 126 122 117 115 114 113 112 111 111 112 113 115
212 216 217 215 215 216 219 217 217 225 224 222 224 212 208 212 201 192 193 189 192 195 186 182 178 178 187 191 193 198 197 193 196 198 200 200 192 187 186 182 181 183 181 181 181 180 180 180 181 181 182 181 176 174 175 175 173 171 171 169 169 170 169 169 166 163 161 158 155 151 147 144 139 133 130 126 122 120 118 116 115 113 113 112 113 116
213 216 217 217 216 215 218 217 214 218 221 221 217 211 209 201 197 199 193 188 193 194 182 177 173 178 186 187 192 204 204 198 199 199 201 204 199 191 189 185 183 184 182 182 183 182 181 181 182 182 184 183 179 178 177 177 175 174 174 173 172 173 172 171 170 167 165 161 159 154 150 147 143 138 135 131 126 123 122 119 118 117 115 114 114 116
216 216 214 217 218 216 217 215 212 214 217 218 214 211 206 200 199 190 185 190 193 188 180 175 172 181 189 186 192 204 201 197 199 197 196 199 200 197 195 190 186 186 185 184 185 184 182 184 184 182 185 185 182 182 180 179 179 177 178 177 175 175 174 173 172 171 168 165 163 158 153 151 148 144 141 138 132 127 126 124 123 122 119 117 116 117
218 217 212 215 217 214 217 214 209 210 212 213 214 212 204 204 206 179 177 191 195 191 189 187 186 191 194 186 189 199 196 196 200 199 196 193 195 198 196 193 189 187 187 186 186 186 184 186 185 183 185 186 184 184 183 182 182 180 180 179 178 177 176 176 175 173 171 170 168 164 160 156 153 151 148 145 141 135 132 129 127 126 123 121 120 119
217 217 211 213 214 211 216 215 208 208 211 213 210 208 205 206 210 192 185 198 205 203 199 202 206 193 194 194 193 198 193 194 200 198 196 192 195 199 194 194 194 188 187 188 188 188 187 188 187 185 187 187 186 186 185 185 184 182 182 182 180 180 179 179 178 176 174 173 172 169 166 162 159 158 154 150 147 143 139 134 132 130 127 125 124 123
216 215 212 212 212 209 212 214 210 207 211 214 208 206 208 208 211 210 206 208 210 205 200 208 215 198 199 211 207 206 198 195 196 195 196 195 199 202 196 197 198 190 189 190 190 189 189 191 189 186 188 189 187 187 187 187 185 184 185 184 182 182 181 181 181 179 177 177 176 173 170 168 165 163 159 154 150 148 144 140 138 135 131 130 128 128
212 216 214 210 210 210 211 214 213 209 208 213 213 210 210 210 214 218 216 216 215 211 208 213 212 199 203 213 210 212 206 201 198 194 196 195 199 203 200 202 201 194 193 192 192 192 191 193 191 188 190 190 188 188 189 189 186 186 187 186 184 184 185 184 183 182 181 180 179 177 175 172 169 167 164 160 156 152 147 145 144 141 137 136 134 134
210 215 214 209 209 210 211 212 214 212 208 212 217 216 210 208 211 217 218 219 222 221 221 215 205 199 206 207 203 207 206 205 203 198 197 196 199 200 200 204 203 200 199 196 195 195 193 195 193 190 192 193 191 188 189 189 187 187 190 189 187 187 188 187 186 186 185 184 183 182 180 177 174 172 170 167 164 160 155 152 151 149 145 143 142 140
212 210 208 210 211 210 210 211 213 213 210 212 213 211 211 208 211 217 217 220 225 223 226 217 197 197 212 209 204 204 203 208 209 204 201 199 199 199 199 201 201 201 201 199 199 199 196 196 195 193 193 195 193 189 189 190 188 188 191 192 190 190 191 190 189 190 189 188 187 185 184 182 178 176 175 174 172 169 166 162 160 158 154 151 149 146
216 209 205 211 214 213 213 210 210 212 209 211 210 205 209 210 212 218 216 220 225 220 223 214 190 197 215 209 205 201 195 203 207 204 202 200 200 201 200 199 198 199 200 201 204 203 200 197 197 197 195 196 195 191 191 192 189 189 192 193 192 192 193 193 192 192 193 192 191 189 188 186 184 182 180 179 178 177 174 172 168 165 162 159 157 154
215 211 206 211 212 212 214 208 207 213 209 211 212 205 208 209 208 216 217 218 222 220 222 213 193 197 208 199 197 195 190 196 202 201 198 200 203 203 201 199 198 199 200 203 205 204 204 202 200 200 197 197 197 194 193 194 192 190 193 195 194 195 195 195 194 195 196 196 194 193 192 191 189 187 185 184 183 182 181 180 176 173 170 168 166 165
210 211 209 212 209 207 213 209 206 212 208 210 214 207 207 208 205 213 218 216 219 221 217 206 193 197 197 194 195 192 189 190 193 192 188 192 198 199 200 200 199 200 200 203 205 203 205 207 203 201 199 198 199 197 195 196 194 192 194 196 196 197 197 197 197 197 198 199 198 197 197 195 193 191 191 189 187 186 186 185 184 181 179 176 175 174
209 211 209 210 205 203 211 211 209 214 208 210 214 207 206 210 208 212 216 215 217 215 206 197 197 202 199 198 197 192 189 184 180 180 179 184 192 192 197 198 198 200 201 203 205 204 206 208 204 202 201 200 201 201 200 199 197 195 196 198 198 199 199 200 200 200 201 201 201 201 201 200 198 197 196 195 193 191 190 191 190 188 186 184 183 181
215 219 207 205 213 211 211 213 218 219 209 207 211 211 210 213 218 223 221 219 218 213 205 198 195 195 193 193 193 187 182 176 170 170 173 177 183 185 190 194 196 199 200 202 205 206 208 206 202 202 204 203 204 205 204 203 200 198 198 200 201 201 201 203 203 203 203 203 203 204 205 203 202 201 200 199 198 197 195 195 195 194 193 191 189 187
214 215 198 199 215 215 209 213 218 216 211 205 208 215 217 217 224 230 227 225 221 212 202 193 185 185 188 189 190 186 180 175 170 169 172 174 176 177 180 184 190 193 196 201 204 206 208 205 201 202 206 206 206 206 207 206 203 201 200 202 204 205 204 205 206 206 206 206 206 207 207 207 205 204 204 203 201 201 200 200 199 198 198 196 194 192
208 202 196 200 211 210 207 215 217 214 213 207 207 216 219 219 226 229 227 226 219 209 199 190 184 186 193 194 192 187 181 178 178 176 177 177 175 173 175 178 184 188 191 195 199 203 205 204 202 203 207 208 208 209 210 209 206 204 203 204 206 208 207 208 209 209 209 209 210 210 210 210 209 207 206 206 205 204 203 202 203 202 202 202 199 196
208 200 202 208 213 209 208 215 217 215 218 220 221 219 214 217 222 218 218 223 217 206 195 189 186 190 199 198 194 192 188 186 187 188 190 188 185 182 181 183 185 186 188 191 194 197 200 203 206 208 209 209 210 212 212 212 211 209 206 205 207 210 210 211 212 212 212 212 213 214 213 213 212 211 209 208 207 206 206 205 205 205 205 205 203 200
211 200 200 207 209 206 207 212 214 213 216 221 224 219 211 216 223 215 214 220 219 209 193 190 193 198 202 198 192 193 194 191 192 199 203 202 199 196 192 192 193 190 188 190 193 195 199 204 208 210 211 208 209 212 214 215 216 214 211 208 208 211 212 213 214 214 214 215 215 216 216 216 215 214 212 210 209 208 208 208 208 207 208 208 207 204
212 204 201 202 202 205 207 208 209 208 209 212 215 214 209 212 223 219 213 214 221 221 202 193 197 203 206 203 196 190 188 188 194 203 207 207 205 203 201 200 200 198 193 190 193 198 204 207 208 209 211 211 212 214 215 217 220 219 217 214 211 211 214 215 216 217 216 217 217 217 218 219 218 217 215 213 211 211 210 210 210 211 211 211 210 208
207 203 206 202 201 207 204 199 202 205 206 209 211 210 208 210 217 218 212 212 219 224 202 193 195 200 203 204 199 194 191 191 195 200 201 201 201 201 203 205 207 207 204 199 199 205 209 210 209 208 211 213 216 217 217 220 222 220 221 221 216 213 216 218 218 219 219 219 219 219 219 221 220 219 218 216 214 213 213 212 212 213 214 213 212 211
204 205 215 209 201 201 194 194 203 206 209 214 210 207 208 210 213 218 218 215 214 204 183 189 197 200 202 202 200 199 199 195 194 194 195 197 201 202 202 204 208 211 212 212 212 213 213 211 209 210 212 213 215 218 220 222 221 219 222 224 220 216 219 221 221 222 221 222 222 221 221 222 222 221 220 218 217 216 215 215 214 215 215 216 215 214
208 211 216 209 198 196 199 206 212 211 213 216 210 207 209 208 213 225 226 217 213 201 185 195 202 200 201 203 202 202 202 200 200 200 197 198 202 203 201 203 207 209 213 216 216 214 214 214 210 210 213 214 216 219 221 222 222 221 222 223 220 220 221 223 225 225 223 225 227 226 225 224 223 223 222 220 220 219 218 217 217 217 217 218 218 218
211 215 215 211 205 203 207 213 213 212 213 212 208 210 215 215 221 229 219 212 216 212 199 203 206 201 202 203 203 204 203 202 203 203 203 205 205 204 201 203 207 207 209 213 214 216 219 218 214 212 214 216 220 221 222 226 229 229 228 227 225 225 225 227 229 228 225 225 227 230 230 228 225 223 223 222 221 221 220 220 219 219 219 219 220 221
213 218 215 213 211 205 207 215 211 207 210 211 212 214 219 221 224 226 218 214 217 213 201 200 199 198 201 202 201 201 201 201 202 201 202 206 208 207 204 205 206 206 208 210 213 218 221 222 219 217 219 221 223 225 225 228 234 236 235 234 231 230 230 230 231 230 228 227 228 230 231 230 228 226 224 224 223 222 222 222 222 221 220 221 222 223
212 215 208 208 213 204 206 216 208 205 211 213 215 218 219 221 223 222 219 217 215 210 203 199 192 189 195 197 195 197 200 202 203 202 203 205 206 206 204 204 205 205 207 212 215 217 220 223 224 223 224 226 228 230 228 228 233 237 237 237 235 235 234 234 234 233 231 231 232 231 228 228 230 229 226 225 225 224 223 223 224 223 222 222 223 224
211 212 204 205 214 209 209 214 210 216 218 211 212 216 217 221 226 222 218 221 226 220 210 202 194 190 193 194 193 196 199 202 202 201 204 206 206 207 205 204 204 205 207 212 214 218 222 225 227 229 230 229 230 236 235 233 236 238 238 236 236 235 234 235 236 235 233 234 233 231 228 228 229 231 231 228 226 226 225 224 224 225 225 225 224 225
212 216 209 206 212 214 219 220 214 221 214 197 201 211 213 219 225 224 224 230 235 224 209 202 197 193 194 195 195 197 199 200 199 199 203 205 206 208 208 208 209 208 210 214 217 219 223 227 230 233 237 237 237 240 239 238 241 242 241 238 237 236 235 235 237 237 235 233 232 232 231 230 230 231 234 233 230 228 227 226 225 225 226 227 226 226
211 217 215 212 216 217 219 220 215 217 211 199 205 212 215 221 223 222 227 231 227 214 203 199 196 194 196 196 197 200 201 201 203 203 206 209 209 208 210 213 216 215 214 218 222 223 225 228 232 235 239 244 245 245 242 240 243 245 243 240 239 238 237 236 237 236 233 231 232 233 232 232 233 234 236 236 234 231 229 228 227 227 227 228 228 228
210 217 220 221 226 224 219 219 220 222 221 220 222 221 221 226 225 222 225 226 220 209 201 199 198 200 204 202 201 206 207 208 212 212 211 213 213 212 212 215 219 221 221 222 223 226 228 230 234 235 238 244 249 250 248 243 243 244 241 239 241 241 240 238 237 236 233 231 232 235 235 236 238 238 238 239 238 235 233 231 230 230 229 229 229 230
213 218 221 222 228 227 220 220 225 227 228 230 232 227 222 225 226 223 222 223 221 209 200 201 204 207 210 208 207 211 211 212 216 216 215 216 217 219 220 222 225 225 225 225 225 227 229 231 235 237 237 242 246 247 247 244 242 242 241 240 243 243 242 241 240 238 236 235 236 238 240 242 242 238 238 239 238 236 236 235 234 233 232 231 230 231
219 220 220 219 225 226 218 217 224 227 229 234 235 229 223 223 225 224 220 220 224 217 208 208 210 209 211 213 213 214 213 214 217 219 219 220 221 224 226 226 227 228 228 229 229 229 231 234 238 240 240 242 245 245 245 242 240 241 243 244 244 243 242 243 243 242 241 241 242 242 242 244 244 241 239 240 239 237 236 237 236 236 236 234 232 232
221 224 224 219 223 223 212 210 219 225 226 230 230 223 220 220 223 223 219 217 221 223 216 211 210 211 216 219 217 215 215 217 219 221 224 225 226 227 227 226 226 227 230 233 233 233 234 237 240 244 245 245 245 246 245 243 242 242 245 248 248 247 247 247 247 246 245 245 247 246 245 245 246 245 243 243 241 240 239 238 237 237 237 236 235 235
219 222 226 224 223 220 210 210 220 226 222 219 219 218 218 220 221 220 219 218 219 218 212 207 208 214 219 218 215 215 218 219 220 222 225 229 230 229 229 229 227 227 230 233 235 235 237 240 243 247 249 248 248 248 246 246 246 246 247 250 252 252 252 251 250 249 247 247 249 249 249 249 248 247 247 246 245 244 242 241 240 240 239 237 236 238
223 220 223 224 223 221 218 218 222 223 216 213 218 221 222 225 222 219 221 223 221 219 215 212 214 217 218 217 217 221 223 221 222 225 226 230 234 233 232 231 230 230 232 234 236 236 238 242 245 247 249 249 250 250 249 248 249 250 250 251 253 253 252 252 253 253 250 249 250 251 252 252 251 250 249 249 248 247 246 246 246 247 245 241 240 241
228 224 224 224 220 223 228 225 220 220 221 221 222 224 226 228 228 228 230 229 225 224 221 218 219 221 221 223 224 227 227 226 229 231 229 229 233 234 233 233 233 235 236 237 239 238 240 245 247 247 248 249 250 252 253 251 250 252 253 254 254 253 253 253 255 257 255 253 252 252 252 251 252 253 252 251 249 249 248 248 249 251 250 247 244 243
226 225 227 227 221 224 233 234 226 225 229 227 221 220 225 228 228 232 235 231 227 227 224 222 223 225 226 228 227 226 229 231 234 232 228 229 232 233 234 237 239 240 242 244 244 244 246 248 249 248 248 249 250 252 254 253 252 252 254 256 257 255 254 256 257 259 259 258 256 255 252 250 251 253 254 253 251 251 249 248 248 249 248 246 244 244
223 223 227 231 229 227 232 237 236 233 229 222 216 217 223 226 228 232 234 231 227 226 226 226 226 226 228 230 229 229 232 235 235 232 231 233 236 237 238 241 243 245 247 248 249 251 252 252 251 250 250 250 251 253 253 253 254 254 255 257 258 257 257 259 260 260 260 260 260 259 256 253 251 252 253 254 253 251 249 248 248 247 246 245 245 245
223 223 225 229 232 232 232 236 239 237 227 219 217 220 224 228 232 234 233 229 225 223 226 228 226 226 229 231 232 234 237 237 236 234 235 236 238 240 243 245 246 248 250 252 253 254 254 254 253 253 253 253 253 254 253 252 254 256 257 257 257 257 258 260 261 261 261 261 260 260 260 257 255 254 253 253 253 251 249 249 248 247 246 246 246 247
229 229 229 230 233 233 234 236 238 234 227 223 222 223 228 235 237 235 232 228 223 222 226 228 225 225 229 232 233 236 236 236 237 238 239 240 241 243 246 247 248 251 252 254 255 254 254 254 255 256 256 255 255 255 254 254 254 256 257 257 256 256 258 259 261 261 261 261 261 261 260 258 258 257 254 253 254 253 252 252 251 250 250 249 248 248
236 234 234 236 237 237 238 239 238 233 228 227 225 226 235 242 240 233 229 227 224 223 226 227 224 225 229 232 233 235 235 236 239 241 242 244 245 247 248 249 250 253 254 255 255 254 254 256 257 257 257 257 256 256 256 256 255 255 256 257 257 257 257 258 259 260 261 261 261 260 259 258 258 257 256 256 257 257 255 255 254 254 253 252 250 249
241 238 237 237 238 241 242 241 242 240 230 225 227 234 241 243 238 232 229 228 227 227 228 229 228 229 233 234 234 235 237 238 242 243 245 247 249 250 250 251 252 254 255 256 256 256 256 257 257 258 258 258 258 257 257 257 257 256 256 256 256 257 257 257 258 259 260 261 261 260 259 258 258 258 257 258 259 260 258 257 256 255 254 253 252 251
244 242 242 242 242 244 244 242 244 241 230 227 235 242 240 235 232 232 232 231 231 232 233 234 233 234 237 237 237 238 241 242 244 245 246 249 250 251 252 253 255 256 257 257 257 258 258 258 258 259 259 259 258 258 257 257 257 257 257 256 255 256 255 255 257 258 258 259 260 260 259 258 258 258 257 259 260 261 260 258 258 257 256 254 254 252
244 242 245 247 248 250 248 244 241 238 233 235 241 240 236 234 236 237 237 236 236 237 237 238 237 236 238 240 242 243 245 245 246 247 248 250 251 252 254 255 256 257 258 258 259 259 260 260 260 260 260 260 259 259 258 258 257 258 258 257 256 256 256 255 255 255 256 257 259 260 260 260 258 256 256 259 260 261 260 259 259 259 258 257 257 255
248 248 249 249 250 251 249 243 240 239 238 239 241 239 238 240 242 243 243 242 242 240 239 240 239 237 238 242 245 246 247 247 248 249 250 251 252 254 255 256 257 258 259 259 260 261 261 261 260 261 261 261 261 261 260 259 259 258 258 258 258 257 257 256 255 255 255 256 257 258 260 260 258 256 256 258 259 259 259 259 259 260 260 259 259 258
248 249 249 248 249 251 247 243 242 242 240 240 243 244 243 242 243 247 248 248 247 244 241 242 243 241 242 244 246 247 248 248 249 250 250 251 253 254 255 257 258 258 259 260 260 261 262 262 262 262 262 262 262 262 261 261 261 260 259 259 259 258 257 257 256 255 255 255 255 257 258 258 258 257 256 256 256 258 259 258 259 260 261 261 261 261
252 252 251 248 247 248 249 249 248 246 244 244 246 247 247 245 245 248 250 250 248 246 244 245 246 247 247 247 247 247 248 248 248 250 251 251 252 253 255 256 257 258 259 260 261 261 262 262 263 263 263 263 263 262 262 262 262 262 261 261 260 259 258 258 257 256 255 255 255 255 255 256 257 256 255 255 256 257 257 257 258 259 260 260 261 262
252 253 253 251 250 251 253 254 252 250 249 248 248 248 250 250 248 248 249 250 248 247 247 247 248 249 249 249 247 246 248 248 249 249 250 251 252 253 255 256 258 259 261 262 262 262 263 263 264 264 264 264 264 263 263 263 263 263 263 262 261 260 259 258 258 257 256 255 255 254 254 255 255 255 255 255 255 255 255 256 258 259 260 260 260 262
255 256 254 253 254 255 256 257 255 253 251 250 250 251 251 252 251 249 247 248 248 247 246 247 248 249 249 249 248 248 249 250 249 250 251 252 253 254 256 258 259 261 262 263 263 264 264 263 264 264 265 265 265 264 264 264 264 264 263 263 262 261 260 259 258 257 256 255 254 254 254 254 254 254 255 255 255 255 255 256 256 257 259 260 260 261
260 259 257 256 257 258 259 260 259 256 253 252 253 254 254 254 253 252 250 249 249 248 247 247 247 247 247 248 248 249 250 250 250 250 251 253 254 255 256 258 259 261 262 263 264 264 264 265 265 265 265 265 265 265 265 265 264 264 263 263 262 261 261 260 259 258 257 256 255 255 254 254 255 255 255 255 255 255 255 255 256 256 257 258 259 261